Tracking 29892 objects as of 21-Nov-2024
HD Live streaming from Space Station
objects crossing your sky now

STARLINK-4420

Track STARLINK-4420 now!
10-day predictions


NORAD ID: 53654
Int'l Code: 2022-105G
Perigee: 566.7 km
Apogee: 573.6 km
Inclination: 97.7 °
Period: 95.9 minutes
Semi major axis: 6941 km
RCS: Unknown
Launch date: August 31, 2022
Source: United States (US)
Launch site: AIR FORCE WESTERN TEST RANGE (AFWTR)
Your satellite tracking list
Your tracking list is empty




NASA's NSSDC Master Catalog

Two Line Element Set (TLE):
1 53654U 22105G   24326.13357534 -.00000500  00000-0 -34295-4 0  9995
2 53654  97.6544 204.7241 0004996  71.7079 288.4688 15.01261069122469
Source of the keplerian elements: AFSPC